Regional Weather Roundup
Issued by NWS

Home | Current Version | Previous Version | Text Only | Print | Product List | Glossary Off
Versions: 1 2 3 4 5 6 7 8 9 10 11 12 13 14 15 16 17 18 19 20 21 22 23 24 25 26 27 28 29 30 31 32 33 34 35 36 37 38 39 40 41 42 43 44 45 46 47 48 49 50

000
ASUS43 KDTX 271010
RWRMI
MICHIGAN HOURLY REGIONAL WEATHER ROUNDUP
NATIONAL WEATHER SERVICE DETROIT/PONTIAC MI
ISSUED BY NATIONAL WEATHER SERVICE GRAND RAPIDS MI
600 AM EDT THU JUL 27 2017

NOTE: "FAIR" INDICATES FEW OR NO CLOUDS BELOW 12,000 FEET WITH NO
SIGNIFICANT WEATHER AND/OR OBSTRUCTION TO VISIBILITY.

MIZ047>049-052>055-059>063-066>070-074>076-081>083-271100-
SOUTHEAST LOWER MICHIGAN

CITY           SKY/WX    TMP DP  RH WIND       PRES   REMARKS
ADRIAN         CLOUDY    65  64  97 CALM      29.97S
ALMA           CLOUDY    68  65  90 CALM      29.95S
ANN ARBOR      CLOUDY    63  63 100 CALM      29.96S
BAD AXE        LGT RAIN  67  65  96 CALM      29.96S
DETROIT CITY   CLOUDY    71  68  90 CALM      29.95S
DETROIT        CLOUDY    70  67  90 SW3       29.96S
FLINT          CLOUDY    67  63  87 S3        29.95F
GROSSE ILE     CLOUDY    71  66  84 W3        29.95R
HILLSDALE      CLOUDY    64  61  88 CALM      29.96S
HOWELL         CLOUDY    66  64  90 SE3       29.97R

CITY           SKY/WX    TMP DP  RH WIND       PRES   REMARKS
JACKSON        CLOUDY    67  61  81 CALM      29.96S
LANSING        CLOUDY    70  62  76 CALM      29.96R
MASON          CLOUDY    66  63  90 SE5       29.96S
MONROE         CLOUDY    66  65  96 CALM      29.94F
MT. CLEMENS    CLOUDY    67  67 100 CALM      29.93F
PONTIAC        CLOUDY    68  66  93 CALM      29.95R
PORT HOPE        N/A     68  67  96 SW3       29.94S
PORT HURON     CLOUDY    68  66  94 CALM      29.96S FOG
TRI CITIES     CLOUDY    69  69 100 CALM      29.95S
YPSILANTI      CLOUDY    69  67  93 CALM      29.96S
$$
MIZ043>046-050>051-056>058-064>065-071>073-077>080-271100-
SOUTHWEST LOWER MICHIGAN

CITY           SKY/WX    TMP DP  RH WIND       PRES   REMARKS
BATTLE CREEK   CLOUDY    67  64  90 CALM      29.96R
BENTON HARBOR  CLOUDY    70  66  87 CALM      29.92R
BIG RAPIDS     LGT RAIN  67  65  94 CALM      29.96R
COLDWATER      CLOUDY    67  67  99 CALM      29.95S
HOLLAND        CLOUDY    70  67  90 SE3       29.94S
GRAND RAPIDS   CLOUDY    71  66  84 CALM      29.94S
KALAMAZOO      CLOUDY    67  62  84 CALM      29.95R
MARSHALL       CLOUDY    66  66  98 CALM      29.95S
MOUNT PLEASANT RAIN      69  66  92 CALM      29.95S
MUSKEGON       CLOUDY    72  68  87 NE7       29.94S
STURGIS        CLOUDY    69  66  90 SE3       29.93F
$$
MIZ016>042-271100-
NORTHERN LOWER MICHIGAN

CITY           SKY/WX    TMP DP  RH WIND       PRES   REMARKS
ALPENA         CLOUDY    66  66 100 NW6       29.96R
BEAVER ISLAND  CLEAR     61  59  94 NW6       29.98R
BELLAIRE       MOCLDY    66  64  96 CALM      29.97R FOG
CADILLAC       CLOUDY    69  66  90 CALM      29.97S FOG
CHARLEVOIX     FOG       64  64 100 CALM      30.00R VSB 1/4
GAYLORD        CLOUDY    65  62  90 CALM      29.98R FOG
HOUGHTON LAKE  CLOUDY    67  66  97 NW5       29.97S FOG
MANISTEE       CLOUDY    67  66  97 CALM      29.95R
OSCODA         CLOUDY    67  66  97 NW5       29.94R
PELLSTON       FOG       60  60 100 CALM      29.97R VSB 3/4
TRAVERSE CITY  CLOUDY    69  66  90 N3        29.95S
LUDINGTON      CLOUDY    67  67 100 CALM      29.94R FOG
$$
MIZ007>008-015-271100-
EASTERN UPPER MICHIGAN

CITY           SKY/WX    TMP DP  RH WIND       PRES   REMARKS
KINROSS        CLEAR     58  57  97 N8        29.97S
MACKINAC ISLAN MOCLDY    62  62 100 NW7       29.97R FOG
NEWBERRY       CLEAR     56  55  97 N5        29.99R
S. S. MARIE    CLEAR     59  55  87 NW6       29.97R
$$
MIZ004>006-011>014-085-271100-
CENTRAL UPPER MICHIGAN

CITY           SKY/WX    TMP DP  RH WIND       PRES   REMARKS
MANISTIQUE     CLEAR     56  53  89 NW6       29.98S
ESCANABA       CLEAR     60  57  89 NW5       29.99R
MENOMINEE      CLEAR     61  60  97 N5        29.99R
SAWYER-GWINN   CLEAR     54  52  91 NW6       30.03R
$$
MIZ001>003-009>011-084-271100-
WESTERN UPPER MICHIGAN

CITY           SKY/WX    TMP DP  RH WIND       PRES   REMARKS
IRON MOUNTAIN  CLOUDY    58  54  86 CALM      30.01R
HOUGHTON       PTCLDY    61  55  81 N7        30.03R
COPPER HARBOR    N/A     60  54  80 N3        30.03R
IRONWOOD       CLEAR     53  52  96 CALM      30.07R
$$

ABBREVIATIONS USED IN REMARKS
   TC - TEMPERATURE IN CELSIUS
  WCI - WIND CHILL INDEX
   HX - HEAT INDEX
  VSB - VISIBILITY




USA.gov is the U.S. government's official web portal to all federal, state and local government web resources and services.